Location: Dąbrówka
(52.2799°N, 15.8070°E)
Time: 00:54:54
(UTC+02:00)

NOAA 18 - Visible Passes

Search period start: 19 June 2019 00:00
Search period end: 29 June 2019 00:00
Orbit: 840 x 861 km, 99.1° (Epoch: 18 June)

Date Brightness Start Highest point End Pass type
(mag) Time Alt. Az. Time Alt. Az. Time Alt. Az.
19 Jun 7.6 22:20:47 10° SW 22:24:41 19° W 22:28:36 10° NW visible
20 Jun 7.3 22:08:25 10° SW 22:12:47 24° W 22:17:11 10° NW visible
25 Jun 7.9 22:53:53 10° W 22:55:29 11° W 22:57:05 10° WNW visible
26 Jun 7.7 22:40:42 10° WSW 22:43:32 14° W 22:46:23 10° NW visible
27 Jun 7.6 22:28:02 10° SW 22:31:36 17° W 22:35:13 10° NW visible
28 Jun 7.5 22:15:35 10° SW 22:19:43 21° W 22:23:51 10° NW visible
